Regional Weather Roundup
Issued by NWS

Home | Current Version | Previous Version | Text Only | Print | Product List | Glossary Off
Versions: 1 2 3 4 5 6 7 8 9 10 11 12 13 14 15 16 17 18 19 20 21 22 23 24 25 26 27 28 29 30 31 32 33 34 35 36 37 38 39 40 41 42 43 44 45 46 47 48 49 50

000
ASUS43 KDMX 201306
RWRIA

WEATHER ROUNDUP FOR IOWA
NATIONAL WEATHER SERVICE DES MOINES IA
800 AM CDT SUN AUG 20 2017

NOTE: "FAIR" INDICATES FEW OR NO CLOUDS BELOW 12,000 FEET WITH NO
SIGNIFICANT WEATHER AND/OR OBSTRUCTIONS TO VISIBILITY.

* - THESE STATIONS ARE NOT NWS STATIONS...THUS NOT UNDER NWS
QUALITY CONTROL.  THEY ALSO DO NOT REPORT WEATHER SUCH
AS PRECIPITATION OR FOG.

IAZ001>003-012>014-020>022-031>034-043>046-201400-
   NORTHWEST IOWA

CITY           SKY/WX    TMP DP  RH WIND       PRES   REMARKS
CARROLL *      CLOUDY    66  66 100 SW7       29.95R
CHEROKEE *     MOSUNNY   63  62  97 CALM      29.94R
DENISON *      CLOUDY    66  64  94 CALM      29.95R
LE MARS *      MOSUNNY  102 N/A N/A CALM      29.94R
ORANGE CITY *  SUNNY     68  66  94 SW3       29.95R
SHELDON *      SUNNY     64  63  94 CALM      29.94R
SIOUX CITY     SUNNY     67  64  90 SE5       29.91R
SPENCER        CLOUDY    65  63  93 SW3       29.94R
STORM LAKE *   CLOUDY    64  63  94 S5        29.94S
$$

IAZ055>058-069>071-079>083-090>094-201400-
   SOUTHWEST IOWA

CITY           SKY/WX    TMP DP  RH WIND       PRES   REMARKS
ATLANTIC *     CLOUDY    68  66  94 S6        29.93R
AUDUBON *      LGT RAIN  66  63  88 CALM      29.96R
CLARINDA *     CLOUDY    68  64  88 SE7       29.91F
COUNCIL BLFS * CLOUDY    68  68 100 SE7       29.89F
CRESTON *      CLOUDY    66  66 100 SE7       29.96R
HARLAN  *      CLOUDY    66  66 100 NE3       29.97R
LAMONI         CLOUDY    72  63  73 SW14G24   29.99R
RED OAK *      CLOUDY    70  66  88 SW7       29.91R
SHENANDOAH *   CLOUDY    70  64  83 CALM      29.87F
$$

IAZ047>049-059>061-072>074-084-201400-
   CENTRAL IOWA

CITY           SKY/WX    TMP DP  RH WIND       PRES   REMARKS
AMES           LGT RAIN  68  68 100 SE7       29.93F
ANKENY *       CLOUDY    68  66  94 CALM      29.96R
BOONE *        CLOUDY    68  64  88 S7G21     29.92F
CHARITON *     CLOUDY    68  66  94 SE5       29.96S
DES MOINES     CLOUDY    69  67  93 E6        29.95R
GRINNELL*      RAIN      67  65  91 SW7       30.01R
KNOXVILLE *    CLOUDY    68  66  94 SE6       29.94F
MARSHALLTOWN   LGT RAIN  69  66  90 S13G18    29.96R
NEWTON *       CLOUDY    68  66  94 CALM      29.99R
PELLA *        LGT RAIN  67  66  96 SE5       29.99R
PERRY *          N/A     67  67  98 SE7       29.93S
$$

IAZ004>006-015-016-023>025-035-036-201400-
   NORTH CENTRAL IOWA

CITY           SKY/WX    TMP DP  RH WIND       PRES   REMARKS
ALGONA *       CLOUDY    68  66  94 CALM      29.94R
CLARION *      CLOUDY    66  66 100 SE6       29.93S
ESTHERVILLE    CLOUDY    64  64 100 S5        29.93R
FORT DODGE *   CLOUDY    68  61  77 CALM      29.95R
MASON CITY     CLOUDY    64  63  96 E3        29.96R FOG
FOREST CITY *    N/A     64  64 100 SE5       29.94S
WEBSTER CITY * CLOUDY    66  64  94 CALM      29.92R
IOWA FALLS *   CLOUDY    67  65  93 N3        29.96R
$$

IAZ007>011-017>019-026>030-037>042-050>054-066-201400-
   NORTHEAST IOWA

CITY           SKY/WX    TMP DP  RH WIND       PRES   REMARKS
CEDAR RAPIDS   CLOUDY    66  65  96 S3        29.98R
CHARLES CITY * CLOUDY    64  64 100 SE7       29.96R
CLINTON *      CLOUDY    66  63  90 SE6       30.00R
DECORAH *      CLOUDY    64  61  88 S8        29.96R
DUBUQUE        CLOUDY    66  62  87 MISG      29.99R
MONTICELLO *   CLOUDY    64  63  94 S6        29.98R
OELWEIN *      CLOUDY    64  64 100 S8        29.99R
WATERLOO       CLOUDY    67  64  90 SE6       29.96R
$$

IAZ064-065-067-068-078-201400-
   EAST CENTRAL IOWA

CITY           SKY/WX    TMP DP  RH WIND       PRES   REMARKS
DAVENPORT      CLOUDY    67  63  87 SE6       30.00S
IOWA CITY        N/A     67  64  90 SE3       30.01R
MT. PLEASANT * CLOUDY    68  67  94 W7        30.04R
MUSCATINE *    CLOUDY    64  63  94 W9G20     30.03R
QUAD CITIES    CLOUDY    68  63  84 E5        29.98S
$$

IAZ062-063-075>077-085>089-095>099-201400-
   SOUTHEAST IOWA

CITY           SKY/WX    TMP DP  RH WIND       PRES   REMARKS
BURLINGTON     CLOUDY    69  67  93 S5        29.99R
FAIRFIELD *    CLOUDY    68  64  88 SW8       30.03R
FORT MADISON * CLOUDY    70  68  94 W9G18     30.05R
KEOKUK *       CLOUDY    70  66  88 W15G23    30.05R
OSKALOOSA *    RAIN      66  65  96 SE7       30.01S
OTTUMWA        RAIN      69  67  93 SE8       30.01F
WASHINGTON *   CLOUDY    68  68 100 W7        30.02S
$$

ABBREVIATIONS USED IN REMARKS
   TC - TEMPERATURES IN CELSIUS
  WCI - WIND CHILL INDEX
   HX - HEAT INDEX
  VSB - VISIBILITY
$$





USA.gov is the U.S. government's official web portal to all federal, state and local government web resources and services.